Location: Ostrava
(49.8330°N, 18.2830°E)
Time: 10:57:05
(UTC+02:00)

Daily predictions for brighter satellites

Satellite Brightness Start Highest point End
(mag) Time Altitude Azimuth Time Altitude Azimuth Time Altitude Azimuth
Nadezhda 1 Rocket 4.4 21:05:39 10° SSE 21:11:42 48° E 21:17:48 10° NNE
Cosmos 2154 Rocket 4.5 21:07:57 10° N 21:14:07 49° ENE 21:20:14 10° SSE
Lacrosse 5 rocket 3.1 21:10:40 10° W 21:14:57 39° NNW 21:19:20 10° NE
H-2A R/B 2.9 21:11:13 10° SE 21:15:36 33° ENE 21:20:06 10° N
YAOGAN 11 4.5 21:11:36 10° SE 21:15:44 50° ENE 21:19:57 10° N
USA 234 4.3 21:11:02 10° ENE 21:17:15 48° N 21:23:27 10° WNW
Meteor 1-13 Rocket 4.4 21:13:03 10° S 21:18:57 72° E 21:24:51 10° NNE
Cosmos 2112 Rocket 4.5 21:16:03 10° S 21:20:54 41° ESE 21:25:45 10° NE
COSMOS 2455 4.2 21:16:09 10° NW 21:21:30 34° WSW 21:26:50 10° S
Cosmos 773 Rocket 4.0 21:17:22 10° SSW 21:22:31 88° WNW 21:27:41 10° NNE
Meteor 1-29 3.3 21:19:17 10° N 21:22:40 70° WNW 21:26:01 10° SSW
USA 81 4.3 21:18:02 10° S 21:23:19 77° W 21:28:39 10° N
Cosmos 2058 Rocket 4.4 21:21:50 10° NNE 21:25:30 25° ENE 21:29:10 10° SE
Cosmos 1437 3.1 21:22:23 10° SSW 21:25:35 68° WNW 21:28:49 10° N
Resurs 01 Rocket 4.3 21:23:59 10° SW 21:26:44 16° W 21:29:29 10° NW
NOAA 11 4.2 21:21:54 10° SSE 21:27:21 83° ENE 21:32:49 10° NNW
YAOGAN 6 3.4 21:26:14 10° S 21:29:38 49° W 21:33:04 10° NNW
COSMOS 2406 3.3 21:24:39 10° S 21:30:16 59° ESE 21:35:52 10° NE
RESURS DK-1 3.4 21:26:36 10° SW 21:30:38 51° NW 21:34:43 10° NNE
GENESIS II 4.4 21:27:00 10° NW 21:30:57 67° SW 21:34:50 10° SSE
Cosmos 405 Rocket 2.7 21:29:34 10° SSW 21:33:18 86° WNW 21:37:11 10° N
ARGOS 3.3 21:28:11 10° SSE 21:33:34 71° ENE 21:38:59 10° N
Cosmos 2278 4.4 21:30:09 10° NNW 21:35:39 45° NE 21:41:05 10° SE
Cosmos 1025 Rocket 3.4 21:32:19 10° SSE 21:36:24 46° E 21:40:30 10° NNE
Cosmos 2341 Rocket 4.3 21:35:34 10° N 21:41:49 57° ENE 21:47:58 10° SSE
Helios 1B rocket 3.9 21:38:51 10° N 21:42:44 41° WNW 21:46:36 10° SW
Cosmos 2056 Rocket 3.7 21:37:52 10° NNW 21:43:03 62° ENE 21:47:46 12° SE
Cosmos 2082 Rocket 3.9 21:40:55 10° SE 21:43:38 14° E 21:46:25 10° ENE
Cosmos 1680 Rocket 3.5 21:39:19 10° SSW 21:44:30 73° ESE 21:49:43 10° NNE
Aureole 3 Rocket 3.7 21:38:57 10° SSW 21:45:18 80° W 21:49:48 10° N
Cosmos 1441 Rocket 3.1 21:42:40 10° S 21:46:23 72° E 21:50:08 10° NNE
SL-08 RB Rocket 3.7 21:42:14 10° SSE 21:46:41 72° ENE 21:51:10 10° N
TELKOM 3 3.1 21:46:19 10° W 21:48:36 70° SSW 21:51:23 12° ESE
Landsat 7 4.3 21:46:09 12° SE 21:50:21 48° ENE 21:54:57 10° N
SPOT 5 2.6 21:46:17 10° SSE 21:50:36 87° WSW 21:55:00 10° NNW
Cosmos 2369 4.1 21:48:33 10° NNW 21:54:15 58° ENE 21:59:12 14° SE
NOSS 2-2 (E) 3.7 21:50:11 10° SW 21:54:21 86° NW 21:59:29 10° NE
Intercosmos 24 4.0 21:50:50 10° NNW 21:55:18 76° W 21:58:54 10° S
H-2A R/B 2.9 21:56:20 14° SE 21:59:55 41° ENE 22:04:11 10° N
SL-16 R/B 4.5 22:00:11 10° N 22:03:35 16° NNE 22:06:59 10° ENE
Cosmos 1697 Rocket 3.6 21:59:26 10° NNW 22:04:43 40° NE 22:09:30 12° ESE
ASTEX 1 4.4 22:00:37 10° SSW 22:05:19 45° W 22:10:03 10° NNW
Terra 2.3 22:01:40 15° SE 22:05:25 47° ENE 22:10:00 10° N
SL-27 R/B 2.5 22:02:21 10° SSW 22:06:01 86° ESE 22:09:41 10° NNE
SPOT 1/Viking Rocket 3.6 22:01:43 12° SSE 22:06:35 87° WSW 22:11:47 10° NNW
Aureole 1 Rocket 2.2 22:03:36 10° SSW 22:06:49 80° WNW 22:09:49 10° NNE
Iridium 43 4.0 22:08:27 10° NNE 22:10:36 37° E 22:11:18 27° SE
Cosmos 405 4.4 22:11:59 10° NNW 22:15:16 34° W 22:18:31 10° SSW
Cosmos 1452 Rocket 4.0 22:10:08 10° NNW 22:15:18 52° ENE 22:19:14 17° SE
Meteor 2-4 Rocket 4.3 22:11:12 10° SSW 22:16:47 62° WNW 22:22:35 10° N
Cosmos 2181 Rocket 4.1 22:13:57 11° S 22:20:08 67° E 22:26:23 10° NNE
USA 267 4.3 22:16:56 10° ENE 22:21:52 22° SE 22:24:56 16° SSE
Okean 1-7 Rocket 4.3 22:18:34 10° SSW 22:22:56 55° WNW 22:27:23 10° N
Cosmos 1437 Rocket 3.4 22:20:43 10° NNW 22:24:25 49° W 22:27:34 14° S
Cosmos 1656 3.7 22:21:10 10° NNW 22:26:37 70° ENE 22:30:33 19° SE
Cosmos 1833 Rocket 3.7 22:24:51 18° SSE 22:27:41 28° ESE 22:32:23 10° NE
Okean 2 3.8 22:26:08 10° SSW 22:30:11 63° WNW 22:34:17 10° N
COSMOS 2487 3.2 22:31:58 25° SSE 22:33:17 34° ESE 22:36:34 10° NE
IGS 5A 3.4 22:30:48 22° SSE 22:33:28 78° ENE 22:37:39 10° N
Cosmos 2228 3.0 22:32:13 10° NNW 22:36:34 83° W 22:39:24 21° S
Cosmos 1892 Rocket 3.6 22:33:05 13° S 22:37:00 86° W 22:41:27 10° N
deb Chang Zheng 4 3.9 22:35:30 10° NNE 22:39:42 49° E 22:42:05 23° SSE
Cosmos 921 Rocket 3.4 22:38:20 10° NNW 22:42:48 59° WSW 22:45:39 21° S
Cosmos 1271 Rocket 3.9 22:39:36 10° N 22:43:03 30° ENE 22:44:50 21° ESE
Cosmos 1602 Rocket 4.1 22:42:08 24° SE 22:44:11 41° E 22:48:16 10° NNE
USA 229 DEB 4.2 22:39:13 10° NW 22:46:16 62° NE 22:52:32 14° ESE
USA 229 4.2 22:39:19 10° NW 22:46:22 61° NE 22:52:38 14° ESE
CZ-4 R/B 4.3 22:41:55 10° NNE 22:46:48 49° E 22:49:42 23° SSE
ISS -3.5 22:46:38 10° SW 22:49:45 40° SSE 22:52:53 10° E
ATLAS CENTAUR R/B 3.7 22:47:32 10° NNW 22:50:00 16° NNE 22:52:25 10° ENE
Cosmos 1980 Rocket 2.7 22:45:59 10° NNW 22:51:33 52° NE 22:55:24 19° SE
H-2A R/B 3.0 22:50:58 13° SSW 22:54:59 38° W 22:59:41 10° NNW
Lacrosse 5 rocket 3.2 22:50:49 10° WNW 22:55:06 35° N 22:59:23 10° ENE
Orbus 7S? 4.2 22:48:04 10° WNW 22:56:32 75° NNE 22:59:19 19° ESE
DMSP B5D2-2 4.2 22:53:59 10° NNE 22:59:19 80° WNW 23:03:56 14° SSW
Cosmos 2322 Rocket 3.7 22:54:34 10° NNW 22:59:29 29° NE 23:04:23 10° ESE
USA 234 3.7 22:53:19 10° E 22:59:46 62° NNE 23:06:12 10° WNW
Cosmos 1766 3.3 22:57:56 10° N 23:01:52 66° E 23:03:28 33° SSE
Cosmos 2058 Rocket 4.2 22:59:32 10° NNW 23:03:37 39° W 23:06:41 16° SSW
SL-8 Rocket 4.3 22:58:16 10° NNW 23:04:25 63° W 23:09:06 18° S
Meteor 1-22 Rocket 4.0 23:00:06 10° NNW 23:05:26 87° WSW 23:08:33 26° S
Cosmos 2366 rocket 4.0 23:02:12 10° NNW 23:08:24 76° W 23:12:29 22° S
Cosmos 1758 4.3 23:05:28 10° N 23:09:12 36° ENE 23:10:42 26° ESE
CARTOSAT-1 4.4 23:08:08 21° SSW 23:10:41 43° W 23:14:49 10° NNW
SeaSat 1 3.0 23:07:32 21° ESE 23:10:41 52° NE 23:15:29 10° NNW
Meteor 1-4 Rocket 3.1 23:08:03 10° NNW 23:11:37 52° W 23:13:05 30° SSW
CZ-2C R/B 4.1 23:13:26 20° ESE 23:16:41 39° ENE 23:21:54 10° N
Meteor 2-21 Rocket 4.5 23:11:23 10° NNW 23:17:29 78° W 23:21:11 25° S
Cosmos 1470 4.4 23:16:02 10° NNE 23:19:20 24° ENE 23:20:52 19° ESE
Cosmos 2082 Rocket 2.1 23:22:42 20° SSW 23:26:47 79° ESE 23:32:28 10° NNE
Timation 2 Rocket 4.1 23:28:03 26° S 23:31:31 55° ESE 23:37:30 10° NE
Cosmos 1812 Rocket 3.9 23:28:18 10° NNW 23:32:44 61° W 23:34:43 31° SSW
Cosmos 1269 Rocket 4.2 23:32:40 32° SSE 23:34:54 54° ESE 23:40:05 10° NNE
H-2A R/B 3.7 23:33:27 16° SW 23:36:02 27° W 23:39:54 10° NW
CZ-4B R/B 3.6 23:31:05 10° NNE 23:36:05 77° WNW 23:39:18 23° SSW
Cosmos 2360 4.2 23:30:55 10° NNW 23:36:41 88° ENE 23:39:38 30° SSE
CZ-2C R/B 3.5 23:32:52 10° NNE 23:38:04 37° E 23:40:12 27° SE
Cosmos 1805 3.2 23:34:51 10° N 23:38:47 88° W 23:39:56 45° S
Cosmos 158 Rocket 4.2 23:37:15 32° S 23:39:30 57° ESE 23:44:47 10° NNE
CZ-4C R/B 3.7 23:38:48 34° SW 23:39:45 44° W 23:43:12 10° NNW
Cosmos 1707 4.4 23:42:38 19° E 23:43:13 20° E 23:46:03 10° NE
Terra 3.5 23:40:33 15° SW 23:43:23 25° W 23:47:18 10° NW
CZ-4B R/B 3.9 23:46:49 10° E 23:47:59 12° ENE 23:49:18 10° NE
Cosmos 1626 Rocket 4.4 23:46:00 21° SW 23:48:33 44° WNW 23:52:43 10° N
Cosmos 1697 Rocket 3.4 23:43:29 10° NW 23:48:45 42° WSW 23:51:13 27° SSW
SL-16 R/B 2.7 23:43:28 10° NNW 23:49:03 54° NE 23:52:35 22° SE
Cosmos 972 Rocket 4.3 23:44:00 10° NNW 23:49:27 62° ENE 23:51:54 30° SE
Cosmos 1544 3.5 23:48:58 10° NNW 23:52:30 52° W 23:53:20 41° SW
ALOS 2 2.8 23:51:38 37° SE 23:53:15 65° ENE 23:57:37 10° N
SME Rocket 3.5 23:51:44 32° S 23:54:11 73° WSW 23:58:24 10° NNW
